[[{"header":{"parameterUnit":"m.s-1","parameterCategory":1,"la1":30.2991,"la2":30.254,"lo1":-89.0895,"lo2":-89.0444,"dx":0.0017,"dy":0.0017,"nx":28,"ny":28,"refTime":"2023-01-12T15:00:00:Z","depth":0,"parameterNumber":2,"parameterNumberName":"U-component_of_WINDS"},"data":[0,0,0,0,0,0,0,0,0,0,0,0,0,0,0,0,0,0,0,0,0,0,0,0,0,0,0,0,0,0,0,0,0,0,0,0,0,0,0,0,0,0,0,0,0,0,0,0,0,0,0,0,0,0,0,0,0,0,2.0673,2.0673,0,2.068,2.068,2.068,2.062,2.0619,2.0617,2.0616,2.0627,2.0629,2.0631,0,0,0,0,0,0,0,0,0,0,0,0,0,2.0612,2.0614,2.0673,2.0673,2.0673,2.068,2.068,2.068,2.0621,2.0619,2.0617,2.0615,2.0626,2.0629,2.0631,0,0,0,0,0,0,0,0,0,0,0,0,0,2.0631,2.0614,2.0673,2.0644,2.0642,2.068,2.068,2.0681,2.0621,2.0619,2.0616,2.0614,2.0626,2.0628,2.0631,2.0699,0,0,2.064,2.0641,0,0,0,0,0,0,0,0,2.063,2.0633,2.0649,2.0646,2.0644,2.0647,2.0663,2.0687,2.0622,2.0629,2.0615,2.0613,2.0636,2.0638,2.0645,2.0699,2.07,2.064,2.0642,2.0643,2.0644,0,0,0,0,0,0,0,2.0629,2.0633,2.0676,2.0649,2.0646,2.0632,2.0632,2.0667,2.0647,2.0628,2.0624,2.0625,2.0634,2.0642,2.0644,2.07,2.064,2.0642,2.0644,2.0645,2.0811,2.0814,0,0,0,0,0,0,2.0631,2.0632,2.0676,2.0676,2.063,2.0636,2.0635,2.0648,2.0646,2.0643,2.0628,2.0623,2.0639,2.0641,2.0645,2.0724,2.0643,2.0645,2.0647,2.0809,2.0812,2.0815,0,0,0,0,0,0,2.063,2.0635,2.0676,2.0653,2.0657,2.0639,2.0654,2.065,2.0658,2.0645,2.0642,2.0639,2.0637,2.0641,2.0686,2.0724,2.0647,2.0649,2.0806,2.081,2.0814,2.0884,0,0,0,0,0,0,2.0628,2.0635,2.066,2.0654,2.0659,2.0715,2.0657,2.0652,2.0662,2.0656,2.0655,2.0653,2.0635,2.0682,2.0688,2.0726,2.0651,2.0802,2.0807,2.0812,2.0878,2.089,2.09,0,0,0,0,0,2.0626,2.068,2.0661,2.0667,2.0689,2.0718,2.072,2.0697,2.0666,2.0691,2.0683,2.0653,2.0718,2.0687,2.0694,2.0733,2.08,2.0806,2.0812,2.0873,2.0887,2.0899,0,0,0,0,0,0,2.0692,2.0679,2.0658,2.0711,2.0716,2.0707,2.0738,2.0713,2.0728,2.0722,2.0694,2.0694,2.0744,2.0743,2.0708,2.0799,2.0754,2.0762,2.0798,2.0811,2.0822,2.0821,2.0654,0,0,0,0,0,2.0713,2.0736,2.0724,2.0772,2.0775,2.0757,2.0768,2.075,2.0755,2.0757,2.0752,2.0759,2.0781,2.0796,2.0815,2.0877,2.0877,2.0908,2.0919,2.0928,2.0935,2.0969,2.0982,2.0835,2.0835,2.0835,0,0,2.0755,2.0751,2.0768,2.0785,2.0786,2.0813,2.0759,2.0789,2.0808,2.0762,2.0803,2.0801,2.0806,2.086,2.0884,2.0861,2.0976,2.0936,2.0943,2.0945,2.0976,2.099,2.1003,2.0839,2.0839,2.0838,0,0,2.0847,2.0846,2.0886,2.0888,2.0891,2.0878,2.0888,2.0884,2.088,2.0921,2.0887,2.091,2.0949,2.0954,2.0962,2.1056,2.103,2.1064,2.1121,2.1154,2.1165,2.1176,2.121,2.1223,2.1071,2.1071,2.1071,0,2.09,2.0937,2.091,2.0942,2.0951,2.0909,2.095,2.0954,2.0964,2.0972,2.0946,2.0993,2.0994,2.1049,2.1072,2.108,2.1091,2.1064,2.1166,2.1176,2.1185,2.1217,2.123,2.1075,2.1075,2.1074,2.1074,0,2.1003,2.1029,2.1061,2.107,2.1083,2.112,2.1099,2.1116,2.1097,2.1088,2.1131,2.113,2.1149,2.1161,2.1143,2.1214,2.12,2.117,2.1124,2.1203,2.1233,2.1246,2.1081,2.108,2.1078,2.1077,0,0,2.1135,2.1129,2.1141,2.1145,2.1145,2.1166,2.1201,2.1219,2.1234,2.1242,2.1272,2.1305,2.1278,2.1287,2.127,2.1299,2.1374,2.1266,2.1265,2.1286,2.1453,2.1476,2.149,2.1357,2.1359,2.1361,2.1453,0,2.1224,2.1283,2.126,2.1321,2.1346,2.1307,2.1338,2.1342,2.1335,2.1356,2.1348,2.1372,2.1334,2.1339,2.1366,2.1359,2.1408,2.1352,2.1385,2.1387,2.1385,2.1506,2.1529,2.1616,2.1464,2.1466,2.1468,0,2.1336,2.1348,2.1411,2.1408,2.1417,2.1446,2.146,2.148,2.1485,2.1477,2.1488,2.1464,2.15,2.1454,2.1504,2.1467,2.1479,2.1478,2.1481,2.1483,2.1432,2.1512,2.1644,2.1657,2.1486,2.1484,2.1483,0,2.1427,2.1459,2.1501,2.1506,2.1503,2.1524,2.1524,2.1526,2.1538,2.1551,2.1559,2.1577,2.1587,2.1601,2.1584,2.1552,2.1637,2.1589,2.1633,2.1633,2.1653,2.1652,2.1788,2.166,2.166,2.166,2.1659,0,2.1529,2.157,2.1542,2.1568,2.1613,2.1587,2.1632,2.1628,2.163,2.1656,2.1624,2.1649,2.1624,2.1647,2.1633,2.1677,2.1682,2.1678,2.1674,2.1681,2.1682,2.1689,2.1683,2.1663,2.1662,2.1662,2.1661,0,2.1638,2.1621,2.1664,2.1658,2.1657,2.1691,2.1686,2.171,2.1701,2.1734,2.174,2.1725,2.1751,2.1735,2.1761,2.1752,2.1809,2.1797,2.1807,2.1804,2.1849,2.1845,2.1995,2.2014,2.1874,2.1875,2.1876,0,2.1704,2.1735,2.1731,2.1745,2.1747,2.1771,2.1783,2.1759,2.1773,2.1781,2.1805,2.1828,2.1845,2.1888,2.188,2.19,2.1889,2.194,2.1891,2.1898,2.189,2.1889,2.1892,2.195,2.1951,2.1953,2.1954,0,2.1824,2.1814,2.1832,2.1848,2.1863,2.1874,2.1883,2.1897,2.1873,2.1891,2.1916,2.193,2.1956,2.1979,2.1996,2.1998,2.1973,2.1969,2.198,2.1988,2.1993,2.1992,2.1834,2.1966,2.1965,2.1964,2.1963,2.1963,2.1914,2.1939,2.1941,2.1962,2.1967,2.1976,2.1999,2.1992,2.2012,2.2031,2.2016,2.2046,2.2052,2.2072,2.2076,2.2101,2.208,2.2096,2.2101,2.2105,2.2111,2.1989,2.2104,2.2103,2.2103,2.2103,2.2103,0,2.2032,2.2032,2.2052,2.2065,2.2082,2.2056,2.2065,2.2081,2.2108,2.2114,2.2131,2.2161,2.2184,2.2178,2.2199,2.222,2.2209,2.2226,2.2224,2.2225,2.2128,2.2117,2.2234,2.2234,2.2234,2.2234,2.2234,2.2234,2.2096,2.2137,2.2128,2.2172,2.2171,2.22,2.2207,2.2216,2.2221,2.2255,2.2274,2.2269,2.2272,2.2292,2.2312,2.231,2.232,2.2341,2.2335,2.2245,2.2232,2.222,2.2208,2.2343,2.2344,2.243,2.2431,2.2432]},{"header":{"parameterUnit":"m.s-1","parameterCategory":1,"la1":30.2991,"la2":30.254,"lo1":-89.0895,"lo2":-89.0444,"dx":0.0017,"dy":0.0017,"nx":28,"ny":28,"refTime":"2023-01-12T15:00:00:Z","depth":0,"parameterNumber":3,"parameterNumberName":"V-component_of_WINDS"},"data":[0,0,0,0,0,0,0,0,0,0,0,0,0,0,0,0,0,0,0,0,0,0,0,0,0,0,0,0,0,0,0,0,0,0,0,0,0,0,0,0,0,0,0,0,0,0,0,0,0,0,0,0,0,0,0,0,0,0,8.6237,8.6237,0,8.6211,8.6211,8.621,8.6138,8.6137,8.6135,8.6134,8.6103,8.6104,8.6105,0,0,0,0,0,0,0,0,0,0,0,0,0,8.6223,8.6224,8.6237,8.6237,8.6236,8.6211,8.6211,8.621,8.6138,8.6136,8.6135,8.6133,8.6103,8.6104,8.6105,0,0,0,0,0,0,0,0,0,0,0,0,0,8.6216,8.6224,8.6237,8.6197,8.6194,8.6211,8.6211,8.621,8.6139,8.6136,8.6134,8.6132,8.6103,8.6104,8.6105,8.6157,0,0,8.6108,8.6108,0,0,0,0,0,0,0,0,8.6217,8.6217,8.6204,8.62,8.6196,8.6176,8.6195,8.6192,8.6139,8.616,8.6133,8.6131,8.6129,8.6128,8.6128,8.6156,8.6155,8.6108,8.6108,8.6109,8.6109,0,0,0,0,0,0,0,8.6217,8.6217,8.6227,8.6204,8.6199,8.6181,8.6177,8.6194,8.6157,8.6158,8.6152,8.615,8.6126,8.6127,8.6127,8.6154,8.6108,8.6109,8.6109,8.611,8.6228,8.623,0,0,0,0,0,0,8.6224,8.6218,8.6227,8.6226,8.6201,8.6183,8.6179,8.6184,8.6157,8.6151,8.6152,8.6147,8.6127,8.6125,8.6125,8.6187,8.6109,8.611,8.611,8.6225,8.6228,8.6231,0,0,0,0,0,0,8.6224,8.6225,8.6228,8.6221,8.622,8.6186,8.6192,8.6185,8.6186,8.6153,8.6146,8.616,8.6125,8.6124,8.6151,8.6185,8.611,8.6111,8.6222,8.6226,8.623,8.631,0,0,0,0,0,0,8.6224,8.6226,8.6245,8.6222,8.6221,8.6255,8.6194,8.6186,8.6188,8.6181,8.6158,8.6152,8.6123,8.615,8.6152,8.6185,8.6112,8.6219,8.6224,8.6228,8.6304,8.6316,8.6326,0,0,0,0,0,8.6223,8.6267,8.6247,8.6248,8.6244,8.6257,8.6256,8.6222,8.6191,8.6211,8.619,8.6153,8.6181,8.6153,8.6155,8.6189,8.6216,8.6222,8.6228,8.6299,8.6314,8.6326,0,0,0,0,0,0,8.6293,8.6263,8.624,8.6278,8.6271,8.6245,8.6268,8.6238,8.6239,8.6232,8.6189,8.6185,8.6218,8.6206,8.6175,8.624,8.6193,8.6199,8.6246,8.626,8.6271,8.6273,8.6113,0,0,0,0,0,8.6314,8.6327,8.63,8.6336,8.6334,8.6302,8.6306,8.6281,8.6272,8.6268,8.6249,8.6241,8.6248,8.6253,8.6258,8.6302,8.6297,8.6327,8.6338,8.6347,8.6353,8.6378,8.6391,8.625,8.625,8.625,0,0,8.6355,8.634,8.6351,8.635,8.6341,8.6357,8.63,8.6317,8.6328,8.627,8.6295,8.6282,8.627,8.6307,8.6322,8.6297,8.6391,8.6354,8.6362,8.6363,8.6385,8.6399,8.6411,8.6254,8.6253,8.6252,0,0,8.6437,8.6428,8.6458,8.6452,8.6441,8.642,8.6428,8.6407,8.6397,8.6422,8.638,8.6392,8.6404,8.6398,8.6396,8.6482,8.6448,8.6485,8.6542,8.6567,8.6578,8.6588,8.662,8.6631,8.6491,8.6491,8.6491,0,8.6489,8.6511,8.6477,8.6498,8.65,8.6451,8.6481,8.6477,8.6467,8.6469,8.6443,8.646,8.6448,8.6484,8.6506,8.6505,8.6513,8.6486,8.658,8.6589,8.6597,8.6627,8.6639,8.6495,8.6495,8.6494,8.6494,0,8.6577,8.6593,8.6618,8.6613,8.6618,8.6644,8.6613,8.6622,8.6598,8.658,8.6608,8.6593,8.6594,8.6601,8.6576,8.6635,8.662,8.6588,8.6539,8.6616,8.6643,8.6654,8.6502,8.65,8.6499,8.6498,0,0,8.67,8.6679,8.6689,8.6687,8.6673,8.6685,8.671,8.6714,8.6723,8.6719,8.6739,8.6753,8.6723,8.6722,8.6696,8.6718,8.679,8.6683,8.6682,8.6704,8.6855,8.688,8.6894,8.6768,8.677,8.6771,8.6856,0,8.6779,8.6821,8.6792,8.6839,8.6854,8.681,8.6831,8.6826,8.6811,8.6821,8.6804,8.6816,8.6775,8.6775,8.6795,8.6777,8.6819,8.677,8.6786,8.6787,8.6791,8.6908,8.6933,8.7014,8.6867,8.6868,8.687,0,8.6876,8.688,8.6929,8.6915,8.692,8.694,8.6943,8.6954,8.6947,8.6935,8.6936,8.6906,8.693,8.6884,8.6916,8.6884,8.6889,8.6882,8.6884,8.6884,8.6833,8.6911,8.7039,8.7051,8.6886,8.6884,8.6883,0,8.6963,8.6979,8.7012,8.7011,8.6996,8.7012,8.7006,8.6997,8.7002,8.7005,8.7008,8.7013,8.7015,8.702,8.6992,8.6961,8.7029,8.698,8.702,8.7021,8.7035,8.7035,8.7166,8.7039,8.7039,8.7038,8.7038,0,8.7054,8.7086,8.7051,8.707,8.7106,8.7073,8.7109,8.7098,8.7091,8.7108,8.707,8.7087,8.7049,8.7062,8.7041,8.7072,8.7073,8.7064,8.7058,8.7068,8.7069,8.707,8.7064,8.7042,8.7041,8.704,8.704,0,8.7156,8.7134,8.7166,8.715,8.7147,8.7174,8.716,8.7178,8.7162,8.7184,8.7188,8.7162,8.7176,8.715,8.7159,8.7145,8.719,8.7174,8.7192,8.7188,8.723,8.7226,8.7366,8.7383,8.7245,8.7246,8.7248,0,8.7215,8.7239,8.7228,8.7237,8.7234,8.725,8.7256,8.7226,8.7234,8.7231,8.7249,8.7261,8.7268,8.7292,8.7274,8.7282,8.7267,8.7316,8.7268,8.7278,8.7269,8.7268,8.7271,8.7325,8.7327,8.7328,8.7329,0,8.7324,8.7313,8.7324,8.7333,8.7342,8.7347,8.7348,8.7358,8.7327,8.7338,8.7353,8.7359,8.7371,8.7383,8.7387,8.7381,8.735,8.7345,8.7355,8.7365,8.7375,8.7371,8.722,8.7341,8.734,8.7339,8.7339,8.7338,8.7407,8.7427,8.7423,8.7438,8.7437,8.7441,8.7458,8.7445,8.7458,8.7466,8.7448,8.7468,8.7463,8.7466,8.7464,8.7479,8.7457,8.7471,8.7474,8.7478,8.7485,8.7373,8.7479,8.7479,8.7478,8.7478,8.7478,0,8.7514,8.7511,8.7525,8.753,8.7542,8.7515,8.7517,8.7528,8.7547,8.7546,8.7555,8.7574,8.7586,8.7571,8.7581,8.7596,8.7583,8.76,8.7598,8.7597,8.7504,8.7495,8.7611,8.7611,8.7611,8.7611,8.7611,8.7611,8.7572,8.7606,8.7595,8.7629,8.7624,8.7645,8.7649,8.7652,8.7652,8.7675,8.7686,8.7677,8.767,8.768,8.7691,8.7686,8.7691,8.7714,8.7704,8.7617,8.7604,8.7591,8.7583,8.7715,8.7715,8.7797,8.7797,8.7798]}]]